| time (UTC) | temp C | wind direction | speed KPH | gust KPH | rain 1hr cm | rain 24hr cm | rain mn cm | humidity % | barometer mb |
| 20260508023308 | 13 | 0 | 0.0 | 0.0 | 0.00 | 0.00 | 0.00 | 94 | 1015.0 |
| 20260508021808 | 13 | 1.6 | 0.0 | 0.00 | 0.00 | 0.00 | 100 | 1015.0 | |
| 20260508020308 | 13 | 1.6 | 0.0 | 0.00 | 0.00 | 0.00 | 100 | 1015.0 | |
| 20260508014808 | 13 | 70 | 3.2 | 0.0 | 0.00 | 0.00 | 0.00 | 94 | 1015.0 |
| 20260508013308 | 13 | 70 | 3.2 | 0.0 | 0.00 | 0.00 | 0.00 | 94 | 1015.0 |
| 20260508011808 | 13 | 70 | 4.8 | 0.0 | 0.00 | 0.00 | 0.00 | 94 | 1015.0 |
| 20260508010308 | 13 | 70 | 4.8 | 0.0 | 0.00 | 0.00 | 0.00 | 94 | 1015.0 |
| 20260508004808 | 13 | 80 | 4.8 | 0.0 | 0.00 | 0.00 | 0.00 | 94 | 1015.0 |
| 20260508003308 | 13 | 80 | 4.8 | 0.0 | 0.00 | 0.00 | 0.00 | 94 | 1015.0 |
| 20260508001807 | 13 | 50 | 3.2 | 0.0 | 0.00 | 0.00 | 0.00 | 94 | 1015.0 |
| 20260508000308 | 13 | 50 | 3.2 | 0.0 | 0.00 | 0.00 | 0.00 | 94 | 1015.0 |
| 20260507234809 | 13 | 1.6 | 0.0 | 0.00 | 0.00 | 0.00 | 100 | 1015.0 | |
| 20260507233308 | 13 | 1.6 | 0.0 | 0.00 | 0.00 | 0.00 | 100 | 1015.0 | |
| 20260507231808 | 13 | 1.6 | 0.0 | 0.00 | 0.00 | 0.00 | 100 | 1015.0 | |
| 20260507230308 | 13 | 1.6 | 0.0 | 0.00 | 0.00 | 0.00 | 100 | 1015.0 | |
| 20260507224808 | 13 | 0 | 0.0 | 0.0 | 0.00 | 0.00 | 0.00 | 100 | 1015.0 |
| 20260507223423 | 13 | 0 | 0.0 | 0.0 | 0.00 | 0.00 | 0.00 | 100 | 1015.0 |
| 20260507221808 | 13 | 0 | 0.0 | 0.0 | 0.00 | 0.00 | 0.00 | 100 | 1015.0 |
| 20260507220307 | 13 | 0 | 0.0 | 0.0 | 0.00 | 0.00 | 0.00 | 100 | 1015.0 |
| 20260507214808 | 13 | 80 | 3.2 | 0.0 | 0.00 | 0.00 | 0.00 | 100 | 1015.0 |
| 20260507213310 | 13 | 80 | 3.2 | 0.0 | 0.00 | 0.00 | 0.00 | 100 | 1015.0 |
| 20260507211808 | 15 | 90 | 4.8 | 0.0 | 0.00 | 0.00 | 0.00 | 94 | 1015.0 |
| 20260507210308 | 15 | 90 | 4.8 | 0.0 | 0.00 | 0.00 | 0.00 | 94 | 1015.0 |
| 20260507204808 | 15 | 130 | 4.8 | 0.0 | 0.00 | 0.00 | 0.00 | 94 | 1015.0 |
| 20260507203308 | 15 | 130 | 4.8 | 0.0 | 0.00 | 0.00 | 0.00 | 94 | 1015.0 |
| 20260507201808 | 16 | 0 | 0.0 | 0.0 | 0.00 | 0.00 | 0.00 | 83 | 1015.0 |
| 20260507200309 | 16 | 0 | 0.0 | 0.0 | 0.00 | 0.00 | 0.00 | 83 | 1015.0 |
| 20260507194814 | 16 | 0 | 0.0 | 0.0 | 0.00 | 0.00 | 0.00 | 83 | 1015.0 |
| 20260507193308 | 16 | 0 | 0.0 | 0.0 | 0.00 | 0.00 | 0.00 | 83 | 1015.0 |
| 20260507191808 | 16 | 0 | 0.0 | 0.0 | 0.00 | 0.00 | 0.00 | 83 | 1015.0 |
| 20260507190309 | 16 | 0 | 0.0 | 0.0 | 0.00 | 0.00 | 0.00 | 83 | 1015.0 |
| 20260507184810 | 16 | 0 | 0.0 | 0.0 | 0.00 | 0.00 | 0.00 | 83 | 1014.0 |
| 20260507183308 | 16 | 0 | 0.0 | 0.0 | 0.00 | 0.00 | 0.00 | 83 | 1014.0 |
| 20260507181808 | 17 | 3.2 | 0.0 | 0.00 | 0.00 | 0.00 | 77 | 1014.0 | |
| 20260507180308 | 17 | 3.2 | 0.0 | 0.00 | 0.00 | 0.00 | 77 | 1014.0 | |
| 20260507174807 | 17 | 330 | 8.0 | 0.0 | 0.00 | 0.00 | 0.00 | 77 | 1014.0 |
| 20260507173309 | 17 | 330 | 8.0 | 0.0 | 0.00 | 0.00 | 0.00 | 77 | 1014.0 |
| 20260507171809 | 17 | 8.0 | 0.0 | 0.00 | 0.00 | 0.00 | 73 | 1014.0 | |
| 20260507170308 | 17 | 8.0 | 0.0 | 0.00 | 0.00 | 0.00 | 73 | 1014.0 | |
| 20260507164808 | 17 | 340 | 11.3 | 0.0 | 0.00 | 0.00 | 0.00 | 78 | 1014.0 |
| 20260507163308 | 17 | 340 | 11.3 | 0.0 | 0.00 | 0.00 | 0.00 | 78 | 1014.0 |
| 20260507161808 | 18 | 350 | 11.3 | 0.0 | 0.00 | 0.00 | 0.00 | 73 | 1013.0 |
| 20260507160308 | 18 | 350 | 11.3 | 0.0 | 0.00 | 0.00 | 0.00 | 73 | 1013.0 |
| 20260507154808 | 18 | 310 | 11.3 | 0.0 | 0.00 | 0.00 | 0.00 | 73 | 1014.0 |
| 20260507153308 | 18 | 310 | 11.3 | 0.0 | 0.00 | 0.00 | 0.00 | 73 | 1014.0 |
| 20260507151808 | 18 | 270 | 9.7 | 0.0 | 0.00 | 0.00 | 0.00 | 73 | 1014.0 |
| 20260507150308 | 18 | 270 | 9.7 | 0.0 | 0.00 | 0.00 | 0.00 | 73 | 1014.0 |
| 20260507144808 | 18 | 250 | 4.8 | 0.0 | 0.00 | 0.00 | 0.00 | 78 | 1014.0 |
| 20260507143310 | 18 | 250 | 4.8 | 0.0 | 0.00 | 0.00 | 0.00 | 78 | 1014.0 |
| 20260507141808 | 17 | 290 | 11.3 | 0.0 | 0.00 | 0.00 | 0.00 | 78 | 1014.0 |
| 20260507140308 | 17 | 290 | 11.3 | 0.0 | 0.00 | 0.00 | 0.00 | 78 | 1014.0 |
| 20260507134808 | 17 | 280 | 16.1 | 0.0 | 0.00 | 0.00 | 0.00 | 88 | 1014.0 |
| 20260507133308 | 17 | 280 | 16.1 | 0.0 | 0.00 | 0.00 | 0.00 | 88 | 1014.0 |
| 20260507130308 | 21 | 270 | 9.7 | 0.0 | 0.00 | 0.00 | 0.00 | 57 | 1013.0 |
| 20260507124808 | 22 | 4.8 | 0.0 | 0.00 | 0.00 | 0.00 | 44 | 1013.0 | |
| 20260507123346 | 22 | 4.8 | 0.0 | 0.00 | 0.00 | 0.00 | 44 | 1013.0 | |
| 20260507121808 | 23 | 3.2 | 0.0 | 0.00 | 0.00 | 0.00 | 47 | 1014.0 | |
| 20260507120308 | 23 | 3.2 | 0.0 | 0.00 | 0.00 | 0.00 | 47 | 1014.0 | |
| 20260507114808 | 22 | 3.2 | 0.0 | 0.00 | 0.00 | 0.00 | 50 | 1014.0 | |
| 20260507113323 | 22 | 1.6 | 0.0 | 0.00 | 0.00 | 0.00 | 53 | 1014.0 | |
| 20260507111808 | 22 | 1.6 | 0.0 | 0.00 | 0.00 | 0.00 | 53 | 1014.0 | |
| 20260507110308 | 22 | 1.6 | 0.0 | 0.00 | 0.00 | 0.00 | 53 | 1014.0 | |
| 20260507104807 | 20 | 3.2 | 0.0 | 0.00 | 0.00 | 0.00 | 56 | 1014.0 | |
| 20260507103308 | 20 | 3.2 | 0.0 | 0.00 | 0.00 | 0.00 | 56 | 1014.0 | |
| 20260507101808 | 18 | 1.6 | 0.0 | 0.00 | 0.00 | 0.00 | 60 | 1014.0 | |
| 20260507100308 | 18 | 1.6 | 0.0 | 0.00 | 0.00 | 0.00 | 60 | 1014.0 | |
| 20260507094808 | 16 | 280 | 4.8 | 0.0 | 0.00 | 0.00 | 0.00 | 68 | 1015.0 |
| 20260507093308 | 16 | 280 | 4.8 | 0.0 | 0.00 | 0.00 | 0.00 | 68 | 1015.0 |
| 20260507091809 | 15 | 0 | 0.0 | 0.0 | 0.00 | 0.00 | 0.00 | 77 | 1015.0 |
| 20260507090308 | 15 | 0 | 0.0 | 0.0 | 0.00 | 0.00 | 0.00 | 77 | 1015.0 |
| 20260507084808 | 15 | 0 | 0.0 | 0.0 | 0.00 | 0.00 | 0.00 | 72 | 1015.0 |
| 20260507083308 | 15 | 0 | 0.0 | 0.0 | 0.00 | 0.00 | 0.00 | 72 | 1015.0 |
| 20260507081808 | 15 | 250 | 1.6 | 0.0 | 0.00 | 0.00 | 0.00 | 68 | 1015.0 |
| 20260507080309 | 15 | 250 | 1.6 | 0.0 | 0.00 | 0.00 | 0.00 | 68 | 1015.0 |
| 20260507074808 | 15 | 280 | 1.6 | 0.0 | 0.00 | 0.00 | 0.00 | 68 | 1015.0 |
| 20260507073308 | 15 | 280 | 1.6 | 0.0 | 0.00 | 0.00 | 0.00 | 68 | 1015.0 |
| 20260507071808 | 15 | 1.6 | 0.0 | 0.00 | 0.00 | 0.00 | 68 | 1014.0 | |
| 20260507070308 | 15 | 1.6 | 0.0 | 0.00 | 0.00 | 0.00 | 68 | 1014.0 | |
| 20260507064808 | 13 | 0 | 0.0 | 0.0 | 0.00 | 0.00 | 0.00 | 67 | 1014.0 |
| 20260507063308 | 13 | 0 | 0.0 | 0.0 | 0.00 | 0.00 | 0.00 | 67 | 1014.0 |
| 20260507061820 | 13 | 0 | 0.0 | 0.0 | 0.00 | 0.00 | 0.00 | 67 | 1014.0 |
| 20260507060308 | 13 | 0 | 0.0 | 0.0 | 0.00 | 0.00 | 0.00 | 67 | 1014.0 |
| 20260507054808 | 12 | 80 | 1.6 | 0.0 | 0.00 | 0.00 | 0.00 | 72 | 1014.0 |
| 20260507053315 | 12 | 80 | 1.6 | 0.0 | 0.00 | 0.00 | 0.00 | 72 | 1014.0 |
| 20260507051808 | 12 | 1.6 | 0.0 | 0.00 | 0.00 | 0.00 | 72 | 1014.0 | |
| 20260507050308 | 12 | 1.6 | 0.0 | 0.00 | 0.00 | 0.00 | 72 | 1014.0 | |
| 20260507044808 | 11 | 0 | 0.0 | 0.0 | 0.00 | 0.00 | 0.00 | 82 | 1014.0 |
| 20260507043308 | 11 | 0 | 0.0 | 0.0 | 0.00 | 0.00 | 0.00 | 82 | 1014.0 |
| 20260507041808 | 8 | 0 | 0.0 | 0.0 | 0.00 | 0.00 | 0.00 | 87 | 1014.0 |
| 20260507040308 | 8 | 0 | 0.0 | 0.0 | 0.00 | 0.00 | 0.00 | 87 | 1014.0 |
| 20260507034808 | 8 | 1.6 | 0.0 | 0.00 | 0.00 | 0.00 | 87 | 1014.0 | |
| 20260507033307 | 8 | 1.6 | 0.0 | 0.00 | 0.00 | 0.00 | 87 | 1014.0 | |
| 20260507031808 | 8 | 80 | 1.6 | 0.0 | 0.00 | 0.00 | 0.00 | 87 | 1014.0 |
| 20260507030308 | 8 | 80 | 1.6 | 0.0 | 0.00 | 0.00 | 0.00 | 87 | 1014.0 |
| 20260507024808 | 8 | 0 | 0.0 | 0.0 | 0.00 | 0.00 | 0.00 | 87 | 1013.0 |